Location: ????
(30.1475°N, 31.1342°E)
Time: 06:35:12
(UTC+00:00)

Meteor 1-14 Rocket - Pass Details

Date: 05 April 2023
Orbit: 834 x 918 km, 81.3° (Epoch: 03 June)

Event Time Altitude Azimuth Distance (km) Brightness Sun altitude
Rises 01:36:45 0° 342° (NNW) 3,401 7.4 -26.5°
Reaches altitude 10° 01:39:16 10° 335° (NNW) 2,472 6.6 -26.0°
Enters shadow 01:41:29 23° 322° (NW) 1,739 5.7 -25.6°
